Regional Weather Roundup
Issued by NWS

Home | Current Version | Previous Version | Text Only | Print | Product List | Glossary On
Versions: 1 2 3 4 5 6 7 8 9 10 11 12 13 14 15 16 17 18 19 20 21 22 23 24 25 26 27 28 29 30 31 32 33 34 35 36 37 38 39 40 41 42 43 44 45 46 47 48 49
000
ASUS45 KCYS 291010
RWRWY

WYOMING REGIONAL WEATHER ROUNDUP
NATIONAL WEATHER SERVICE CHEYENNE WY
400 AM MDT SAT AUG 29 2015

NOTE:  "FAIR" INDICATES FEW OR NO CLOUDS BELOW 12,000 FEET
WITH NO SIGNIFICANT WEATHER AND/OR OBSTRUCTIONS TO VISIBILITY.

WYZ001-291100-
YELLOWSTONE NATIONAL PARK

CITY           SKY/WX    TMP DP  RH WIND       PRES   REMARKS
LK YELLOWSTONE   N/A     42  37  82 NW3       30.35F
W YELLOWSTONE  NOT AVBL

$$
WYZ002>013-054>058-071-098>099-291100-
NORTHERN WYOMING

CITY           SKY/WX    TMP DP  RH WIND       PRES   REMARKS
JACKSON        FAIR      46  43  87 N6        30.26S
CODY           FAIR      66  37  34 SE3       30.11R
GREYBULL       FAIR      62  39  42 CALM      30.05S
WORLAND        FAIR      56  43  61 NE5       30.07R
SHERIDAN       FAIR      54  44  69 CALM      30.04F
BUFFALO        FAIR      71  30  21 W3        30.12F
GILLETTE       FAIR      69  39  33 SW15      30.09S
HULETT         FAIR      63  45  51 CALM      30.11F
NEWCASTLE      FAIR      68  41  37 SE7       30.13F

$$
WYZ014>020-022>026-101>103-291100-
CENTRAL WYOMING

CITY           SKY/WX    TMP DP  RH WIND       PRES   REMARKS
BIG PINEY      FAIR      40  31  70 N3        30.32S
PINEDALE       FAIR      39  37  93 W5        30.34R
DUBOIS         FAIR      46  34  61 NW14      30.31S
LANDER         FAIR      65  34  31 W3        30.18S
RIVERTON       FAIR      58  41  53 W9        30.19S
CASPER         FAIR      56  37  49 SW6       30.18F
DOUGLAS        FAIR      52  39  61 E5        30.19F

$$
WYZ021-027>030-104>119-291100-
SOUTHERN WYOMING

CITY           SKY/WX    TMP DP  RH WIND       PRES   REMARKS
EVANSTON       FAIR      60  35  39 SE5       30.30S
KEMMERER       FAIR      50  32  50 N10       30.32S
FORT BRIDGER   SUNNY     63  32  31 CALM      30.32F
ROCK SPRINGS   FAIR      59  27  29 S9        30.30S
DIXON          FAIR      53  38  56 NE7       30.34S
RAWLINS        FAIR      50  40  68 CALM      30.32S
SARATOGA       FAIR      52  41  66 CALM      30.36S
LARAMIE        FAIR      46  40  79 S9        30.36F
CHEYENNE       FAIR      56  44  64 W7        30.30F
TORRINGTON     FAIR      62  43  49 SE5       30.16F
PINE BLUFFS    FAIR      46  41  81 S7        30.26S

$$



USA.gov is the U.S. government's official web portal to all federal, state and local government web resources and services.